Location: Niles Junction
(37.5763°N, 121.9714°W)
Time: 03:49:56
(UTC+00:00)

Cosmos 2278 - Pass Details

Date: 29 October 2020
Orbit: 842 x 851 km, 71.1° (Epoch: 23 November)

Event Time Altitude Azimuth Distance (km) Brightness Sun altitude
Exits shadow 13:23:56 - 331° (NNW) 3,272 6.4 -13.7°
Reaches altitude 10° 13:26:05 10° 327° (NNW) 2,465 5.8 -13.3°
Maximum altitude 13:31:32 51° 253° (WSW) 1,052 3.9 -12.2°
Drops below altitude 10° 13:36:57 10° 179° (S) 2,450 6.2 -11.2°
Sets 13:39:26 0° 174° (S) 3,381 7.0 -10.7°
